Weather in Cherepet'

Russia / Tula Oblast     54°07′02″N   36°23′01″E
temp.,
°C
wind,
m/s
gust,
m/s
humid.,
%
clouds,
%
prec.,
mm/h
press.,
hPa
HPBL,
m
17 may, mon
mon1700:00+14ese227834 0.0 101318
03:00+13ene368452 0.0 101395
06:00+14e51487100 0.2 1011347
09:00+19e6118267 0.9 1010475
12:00+25ese69585 0.0 1009988
15:00+26ese6115755 0.0 10081530
18:00+23ese6136327 0.0 1007819
21:00+20ese616747 0.0 1007605
18 may, tue
tue1800:00+18se515775 0.0 1007499
03:00+16ese411873 0.0 1007232
06:00+15ese39865 0.0 1007215
09:00+20se5116581 0.0 1006497
12:00+24se7115399 0.0 10061019
15:00+25se51155100 0.0 10051488
18:00+23ese51164100 0.0 1004998
21:00+17sse4108939 0.2 1005273
19 may, wed
wed1900:00+15se4119082 0.3 1006331
03:00+14ese41090100 0.3 1006346
06:00+14se3892100 0.3 1006340
09:00+18sse3577100 0.3 1006508
12:00+16sse26885 1.2 1007444
15:00+22sse355865 1.3 10061618
18:00+20s247086 0.2 1005614
21:00+15sse2288100 0.6 100630
20 may, thu
thu2000:00+14ese2492100 0.0 100560
03:00+13ese369699 0.2 1005143
06:00+13se41096100 1.4 1005593
09:00+13sse6109481 1.9 1005622
12:00+17sse7107374 0.9 10061464
15:00+18s686932 2.3 10061384
18:00+16ssw597698 0.4 1005896
21:00+12sw489692 1.1 1007400
21 may, fri
fri2100:00+10sw5108991 0.1 1008853
03:00+8sw61290100 0.2 1009835
06:00+9sw71287100 0.0 10101017
09:00+10sw71286100 0.1 1012958
12:00+13wsw71173100 0.1 10151233
15:00+14w486771 0.3 10161221
18:00+15w2473100 0.1 1018378
21:00+12ese2281100 0.1 101925